Tracking 35275 objects as of 8-Sep-2026
HD Live streaming from Space Station
objects crossing your sky now

SL-12 DEB


SL-12 DEB is no longer on orbit


NORAD ID: 29465
Int'l Code: 1989-039DK
Launch date: May 31, 1989
Source: Commonwealth of Independent States (former USSR) (CIS)
Launch site: TYURATAM MISSILE AND SPACE COMPLEX (TTMTR)
Decay date: 2006-11-12

Note: This is SATELLITE DEBRIS
Your satellite tracking list
Your tracking list is empty




NASA's NSSDC Master Catalog

Two Line Element Set (TLE):
1 29465U 89039DK  06309.76908642  .00360482  00000-0  17206+0 0  9993
2 29465 065.5989 237.2306 5690159 064.3375 347.4491 04.44916519  4443
Source of the keplerian elements: AFSPC